| time (UTC) | temp C | wind direction | speed KPH | gust KPH | rain 1hr cm | rain 24hr cm | rain mn cm | humidity % | barometer mb |
| 20260901143314 | 18 | 245 | 9.7 | 19.3 | 0.00 | 0.00 | 0.00 | 69 | 1016.2 |
| 20260901142813 | 18 | 247 | 9.7 | 22.5 | 0.00 | 0.00 | 0.00 | 70 | 1016.2 |
| 20260901141813 | 18 | 243 | 9.7 | 22.5 | 0.00 | 0.00 | 0.00 | 71 | 1016.3 |
| 20260901141314 | 18 | 238 | 9.7 | 20.9 | 0.00 | 0.00 | 0.00 | 70 | 1016.2 |
| 20260901140814 | 18 | 247 | 9.7 | 19.3 | 0.00 | 0.00 | 0.00 | 70 | 1016.2 |
| 20260901140314 | 18 | 249 | 11.3 | 19.3 | 0.00 | 0.00 | 0.00 | 70 | 1016.1 |
| 20260901135813 | 18 | 259 | 11.3 | 24.1 | 0.00 | 0.00 | 0.00 | 70 | 1016.2 |
| 20260901135314 | 18 | 243 | 9.7 | 24.1 | 0.00 | 0.00 | 0.00 | 69 | 1016.0 |
| 20260901134814 | 18 | 248 | 12.9 | 22.5 | 0.00 | 0.00 | 0.00 | 67 | 1016.0 |
| 20260901134314 | 18 | 239 | 11.3 | 20.9 | 0.00 | 0.00 | 0.00 | 67 | 1016.1 |
| 20260901132314 | 18 | 229 | 9.7 | 19.3 | 0.00 | 0.00 | 0.00 | 67 | 1016.1 |
| 20260901131814 | 18 | 231 | 9.7 | 35.4 | 0.00 | 0.00 | 0.00 | 67 | 1016.2 |
| 20260901131314 | 18 | 229 | 14.5 | 32.2 | 0.00 | 0.00 | 0.00 | 65 | 1016.2 |
| 20260901130813 | 18 | 215 | 9.7 | 27.4 | 0.00 | 0.00 | 0.00 | 68 | 1016.2 |
| 20260901130314 | 18 | 257 | 11.3 | 19.3 | 0.00 | 0.00 | 0.00 | 68 | 1016.2 |
| 20260901125313 | 18 | 242 | 11.3 | 19.3 | 0.00 | 0.00 | 0.00 | 68 | 1016.2 |
| 20260901124813 | 18 | 218 | 9.7 | 19.3 | 0.00 | 0.00 | 0.00 | 68 | 1016.2 |
| 20260901124314 | 18 | 226 | 9.7 | 29.0 | 0.00 | 0.00 | 0.00 | 69 | 1016.2 |
| 20260901123814 | 18 | 220 | 11.3 | 29.0 | 0.00 | 0.00 | 0.00 | 68 | 1016.3 |
| 20260901123313 | 18 | 222 | 11.3 | 25.7 | 0.00 | 0.00 | 0.00 | 68 | 1016.3 |
| 20260901122814 | 18 | 217 | 8.0 | 19.3 | 0.00 | 0.00 | 0.00 | 69 | 1016.3 |
| 20260901122314 | 17 | 235 | 8.0 | 20.9 | 0.00 | 0.00 | 0.00 | 70 | 1016.3 |
| 20260901121814 | 17 | 258 | 9.7 | 19.3 | 0.00 | 0.00 | 0.00 | 70 | 1016.4 |
| 20260901121314 | 17 | 235 | 9.7 | 19.3 | 0.00 | 0.00 | 0.00 | 70 | 1016.4 |
| 20260901120814 | 17 | 234 | 6.4 | 14.5 | 0.00 | 0.00 | 0.00 | 70 | 1016.3 |
| 20260901120313 | 17 | 229 | 8.0 | 19.3 | 0.00 | 0.00 | 0.00 | 71 | 1016.4 |
| 20260901115814 | 17 | 233 | 9.7 | 19.3 | 0.00 | 0.00 | 0.00 | 71 | 1016.5 |
| 20260901114313 | 17 | 247 | 11.3 | 19.3 | 0.00 | 0.00 | 0.00 | 71 | 1016.4 |
| 20260901113814 | 17 | 254 | 8.0 | 16.1 | 0.00 | 0.00 | 0.00 | 71 | 1016.4 |
| 20260901113313 | 17 | 232 | 9.7 | 16.1 | 0.00 | 0.00 | 0.00 | 71 | 1016.5 |
| 20260901112814 | 17 | 222 | 11.3 | 22.5 | 0.00 | 0.00 | 0.00 | 70 | 1016.4 |
| 20260901112313 | 17 | 218 | 11.3 | 20.9 | 0.00 | 0.00 | 0.00 | 70 | 1016.4 |
| 20260901111313 | 17 | 220 | 11.3 | 20.9 | 0.00 | 0.00 | 0.00 | 68 | 1016.3 |
| 20260901110814 | 17 | 239 | 9.7 | 19.3 | 0.00 | 0.00 | 0.00 | 69 | 1016.3 |
| 20260901110314 | 17 | 225 | 9.7 | 19.3 | 0.00 | 0.00 | 0.00 | 70 | 1016.3 |
| 20260901105814 | 17 | 249 | 11.3 | 20.9 | 0.00 | 0.00 | 0.00 | 69 | 1016.4 |
| 20260901105314 | 17 | 242 | 11.3 | 24.1 | 0.00 | 0.00 | 0.00 | 69 | 1016.3 |
| 20260901104813 | 17 | 236 | 11.3 | 20.9 | 0.00 | 0.00 | 0.00 | 69 | 1016.4 |
| 20260901104313 | 17 | 223 | 9.7 | 19.3 | 0.00 | 0.00 | 0.00 | 70 | 1016.4 |
| 20260901103814 | 17 | 252 | 11.3 | 20.9 | 0.00 | 0.00 | 0.00 | 71 | 1016.3 |
| 20260901103314 | 17 | 238 | 9.7 | 19.3 | 0.00 | 0.00 | 0.00 | 70 | 1016.4 |
| 20260901102814 | 17 | 229 | 11.3 | 22.5 | 0.00 | 0.00 | 0.00 | 69 | 1016.5 |
| 20260901102314 | 17 | 242 | 8.0 | 19.3 | 0.00 | 0.00 | 0.00 | 69 | 1016.6 |
| 20260901101813 | 17 | 232 | 9.7 | 24.1 | 0.00 | 0.00 | 0.00 | 69 | 1016.6 |
| 20260901101313 | 16 | 249 | 11.3 | 24.1 | 0.00 | 0.00 | 0.00 | 69 | 1016.5 |
| 20260901100814 | 16 | 250 | 11.3 | 20.9 | 0.00 | 0.00 | 0.00 | 69 | 1016.6 |
| 20260901100313 | 17 | 229 | 11.3 | 27.4 | 0.00 | 0.00 | 0.00 | 68 | 1016.6 |
| 20260901094814 | 17 | 221 | 9.7 | 22.5 | 0.00 | 0.00 | 0.00 | 68 | 1016.4 |
| 20260901094313 | 17 | 212 | 12.9 | 27.4 | 0.00 | 0.00 | 0.00 | 68 | 1016.4 |
| 20260901093814 | 17 | 225 | 9.7 | 19.3 | 0.00 | 0.00 | 0.00 | 70 | 1016.4 |
| 20260901093314 | 16 | 224 | 14.5 | 29.0 | 0.00 | 0.00 | 0.00 | 69 | 1016.4 |
| 20260901092814 | 16 | 225 | 12.9 | 24.1 | 0.00 | 0.00 | 0.00 | 68 | 1016.4 |
| 20260901092313 | 16 | 231 | 11.3 | 32.2 | 0.00 | 0.00 | 0.00 | 70 | 1016.4 |
| 20260901091814 | 16 | 236 | 12.9 | 19.3 | 0.00 | 0.00 | 0.00 | 69 | 1016.5 |
| 20260901091314 | 16 | 234 | 11.3 | 24.1 | 0.00 | 0.00 | 0.00 | 72 | 1016.4 |
| 20260901090314 | 16 | 226 | 9.7 | 16.1 | 0.00 | 0.00 | 0.00 | 74 | 1016.5 |
| 20260901085814 | 16 | 233 | 6.4 | 14.5 | 0.00 | 0.00 | 0.00 | 75 | 1016.5 |
| 20260901085313 | 16 | 218 | 9.7 | 19.3 | 0.00 | 0.00 | 0.00 | 75 | 1016.5 |
| 20260901084815 | 15 | 243 | 8.0 | 16.1 | 0.00 | 0.00 | 0.00 | 78 | 1016.4 |
| 20260901084314 | 15 | 235 | 9.7 | 19.3 | 0.00 | 0.00 | 0.00 | 79 | 1016.3 |
| 20260901083813 | 15 | 243 | 8.0 | 19.3 | 0.00 | 0.00 | 0.00 | 80 | 1016.3 |
| 20260901082813 | 15 | 212 | 8.0 | 12.9 | 0.00 | 0.00 | 0.00 | 81 | 1016.4 |
| 20260901082313 | 15 | 217 | 9.7 | 19.3 | 0.00 | 0.00 | 0.00 | 81 | 1016.5 |
| 20260901081814 | 15 | 241 | 11.3 | 22.5 | 0.00 | 0.00 | 0.00 | 80 | 1016.4 |
| 20260901081313 | 15 | 223 | 9.7 | 20.9 | 0.00 | 0.00 | 0.00 | 80 | 1016.4 |
| 20260901075815 | 15 | 233 | 8.0 | 14.5 | 0.00 | 0.00 | 0.00 | 82 | 1016.3 |
| 20260901075313 | 15 | 235 | 8.0 | 20.9 | 0.00 | 0.00 | 0.00 | 83 | 1016.2 |
| 20260901074813 | 15 | 248 | 8.0 | 14.5 | 0.00 | 0.00 | 0.00 | 84 | 1016.2 |
| 20260901074313 | 14 | 213 | 8.0 | 19.3 | 0.00 | 0.00 | 0.00 | 85 | 1016.2 |
| 20260901073814 | 14 | 253 | 9.7 | 19.3 | 0.00 | 0.00 | 0.00 | 85 | 1016.1 |
| 20260901072813 | 13 | 246 | 4.8 | 12.9 | 0.00 | 0.00 | 0.00 | 87 | 1016.1 |
| 20260901072313 | 13 | 240 | 4.8 | 19.3 | 0.00 | 0.00 | 0.00 | 88 | 1016.2 |
| 20260901071813 | 13 | 265 | 4.8 | 9.7 | 0.00 | 0.00 | 0.00 | 88 | 1016.2 |
| 20260901070815 | 13 | 237 | 3.2 | 8.0 | 0.00 | 0.00 | 0.00 | 89 | 1016.3 |
| 20260901065813 | 12 | 248 | 1.6 | 8.0 | 0.00 | 0.00 | 0.00 | 90 | 1016.2 |
| 20260901065313 | 12 | 243 | 4.8 | 11.3 | 0.00 | 0.00 | 0.00 | 90 | 1016.2 |
| 20260901064814 | 12 | 278 | 3.2 | 11.3 | 0.00 | 0.00 | 0.00 | 90 | 1016.2 |
| 20260901063814 | 12 | 246 | 3.2 | 8.0 | 0.00 | 0.00 | 0.00 | 90 | 1016.2 |
| 20260901063313 | 12 | 233 | 3.2 | 9.7 | 0.00 | 0.00 | 0.00 | 90 | 1016.2 |
| 20260901062813 | 12 | 248 | 9.7 | 12.9 | 0.00 | 0.00 | 0.00 | 91 | 1016.2 |
| 20260901062313 | 12 | 250 | 6.4 | 12.9 | 0.00 | 0.00 | 0.00 | 91 | 1016.2 |
| 20260901061813 | 12 | 244 | 8.0 | 12.9 | 0.00 | 0.00 | 0.00 | 92 | 1016.2 |
| 20260901061313 | 12 | 245 | 3.2 | 9.7 | 0.00 | 0.00 | 0.00 | 92 | 1016.2 |
| 20260901060813 | 12 | 246 | 4.8 | 9.7 | 0.00 | 0.00 | 0.00 | 92 | 1016.1 |
| 20260901055813 | 11 | 241 | 1.6 | 4.8 | 0.00 | 0.00 | 0.00 | 92 | 1016.1 |
| 20260901055313 | 11 | 250 | 4.8 | 9.7 | 0.00 | 0.00 | 0.00 | 92 | 1016.1 |
| 20260901054814 | 11 | 256 | 1.6 | 4.8 | 0.00 | 0.00 | 0.00 | 92 | 1016.1 |
| 20260901054313 | 11 | 253 | 1.6 | 4.8 | 0.00 | 0.00 | 0.00 | 92 | 1016.1 |
| 20260901053313 | 11 | 279 | 3.2 | 4.8 | 0.00 | 0.00 | 0.00 | 93 | 1016.0 |
| 20260901052313 | 11 | 348 | 1.6 | 3.2 | 0.00 | 0.00 | 0.00 | 92 | 1016.0 |
| 20260901051814 | 11 | 348 | 1.6 | 3.2 | 0.00 | 0.00 | 0.00 | 92 | 1016.0 |
| 20260901051313 | 11 | 291 | 1.6 | 4.8 | 0.00 | 0.00 | 0.00 | 91 | 1016.0 |
| 20260901050813 | 11 | 291 | 1.6 | 1.6 | 0.00 | 0.00 | 0.00 | 91 | 1016.0 |
| 20260901045813 | 11 | 291 | 1.6 | 1.6 | 0.00 | 0.00 | 0.00 | 91 | 1016.0 |
| 20260901045313 | 11 | 291 | 1.6 | 3.2 | 0.00 | 0.00 | 0.00 | 91 | 1016.0 |
| 20260901044313 | 11 | 291 | 0.0 | 3.2 | 0.00 | 0.00 | 0.00 | 91 | 1016.0 |
| 20260901043313 | 11 | 291 | 1.6 | 3.2 | 0.00 | 0.00 | 0.00 | 91 | 1016.0 |
| 20260901042813 | 11 | 291 | 1.6 | 4.8 | 0.00 | 0.00 | 0.00 | 90 | 1016.0 |
| 20260901042312 | 11 | 291 | 1.6 | 4.8 | 0.00 | 0.00 | 0.00 | 90 | 1015.9 |
| 20260901041813 | 11 | 291 | 1.6 | 3.2 | 0.00 | 0.00 | 0.00 | 90 | 1015.9 |
| 20260901041312 | 11 | 291 | 1.6 | 3.2 | 0.00 | 0.00 | 0.00 | 90 | 1016.0 |
| 20260901040813 | 11 | 291 | 1.6 | 3.2 | 0.00 | 0.00 | 0.00 | 89 | 1015.9 |
| 20260901040313 | 11 | 291 | 3.2 | 4.8 | 0.00 | 0.00 | 0.00 | 89 | 1015.8 |
| 20260901035815 | 11 | 291 | 1.6 | 3.2 | 0.00 | 0.00 | 0.00 | 89 | 1015.9 |
| 20260901035313 | 12 | 291 | 1.6 | 3.2 | 0.00 | 0.00 | 0.00 | 89 | 1015.8 |
| 20260901034813 | 12 | 291 | 0.0 | 3.2 | 0.00 | 0.00 | 0.00 | 89 | 1015.9 |
| 20260901034313 | 12 | 291 | 1.6 | 3.2 | 0.00 | 0.00 | 0.00 | 89 | 1015.8 |
| 20260901033313 | 12 | 291 | 3.2 | 4.8 | 0.00 | 0.00 | 0.00 | 89 | 1015.9 |
| 20260901032813 | 12 | 259 | 3.2 | 4.8 | 0.00 | 0.00 | 0.00 | 90 | 1016.0 |
| 20260901032312 | 11 | 259 | 3.2 | 8.0 | 0.00 | 0.00 | 0.00 | 90 | 1016.0 |
| 20260901031814 | 11 | 238 | 1.6 | 3.2 | 0.00 | 0.00 | 0.00 | 90 | 1015.9 |
| 20260901031312 | 12 | 214 | 0.0 | 3.2 | 0.00 | 0.00 | 0.00 | 90 | 1015.8 |
| 20260901030813 | 12 | 214 | 1.6 | 4.8 | 0.00 | 0.00 | 0.00 | 90 | 1015.8 |
| 20260901030314 | 12 | 247 | 3.2 | 4.8 | 0.00 | 0.00 | 0.00 | 90 | 1015.8 |
| 20260901025813 | 12 | 243 | 1.6 | 4.8 | 0.00 | 0.00 | 0.00 | 90 | 1015.8 |
| 20260901025313 | 12 | 309 | 1.6 | 4.8 | 0.00 | 0.00 | 0.00 | 90 | 1015.9 |
| 20260901024813 | 12 | 319 | 1.6 | 3.2 | 0.00 | 0.00 | 0.00 | 91 | 1015.9 |
| 20260901024312 | 12 | 319 | 1.6 | 3.2 | 0.00 | 0.00 | 0.00 | 91 | 1015.9 |
| 20260901023813 | 11 | 319 | 0.0 | 3.2 | 0.00 | 0.00 | 0.00 | 92 | 1015.9 |
| 20260901023313 | 11 | 319 | 0.0 | 3.2 | 0.00 | 0.00 | 0.00 | 92 | 1015.9 |
| 20260901022813 | 11 | 319 | 0.0 | 3.2 | 0.00 | 0.00 | 0.00 | 92 | 1016.0 |
| 20260901022313 | 11 | 319 | 1.6 | 3.2 | 0.00 | 0.00 | 0.00 | 92 | 1016.0 |
| 20260901021813 | 11 | 319 | 0.0 | 1.6 | 0.00 | 0.00 | 0.00 | 91 | 1016.1 |
| 20260901021313 | 11 | 319 | 1.6 | 3.2 | 0.00 | 0.00 | 0.00 | 91 | 1016.1 |
| 20260901020814 | 11 | 319 | 0.0 | 3.2 | 0.00 | 0.00 | 0.00 | 91 | 1016.1 |
| 20260901020313 | 11 | 319 | 1.6 | 1.6 | 0.00 | 0.00 | 0.00 | 91 | 1016.2 |
| 20260901015313 | 11 | 319 | 1.6 | 1.6 | 0.00 | 0.00 | 0.00 | 90 | 1016.2 |
| 20260901014813 | 11 | 319 | 1.6 | 1.6 | 0.00 | 0.00 | 0.00 | 90 | 1016.2 |
| 20260901014313 | 11 | 319 | 0.0 | 1.6 | 0.00 | 0.00 | 0.00 | 90 | 1016.2 |
| 20260901013813 | 11 | 319 | 0.0 | 3.2 | 0.00 | 0.00 | 0.00 | 90 | 1016.1 |
| 20260901013312 | 11 | 319 | 1.6 | 1.6 | 0.00 | 0.00 | 0.00 | 90 | 1016.2 |
| 20260901012813 | 11 | 319 | 1.6 | 3.2 | 0.00 | 0.00 | 0.00 | 89 | 1016.1 |
| 20260901012312 | 11 | 319 | 1.6 | 3.2 | 0.00 | 0.00 | 0.00 | 89 | 1016.2 |
| 20260901011312 | 11 | 319 | 0.0 | 3.2 | 0.00 | 0.00 | 0.00 | 89 | 1016.2 |
| 20260901010814 | 11 | 319 | 0.0 | 1.6 | 0.00 | 0.00 | 0.00 | 89 | 1016.1 |
| 20260901010313 | 11 | 319 | 0.0 | 0.0 | 0.00 | 0.00 | 0.00 | 89 | 1016.1 |
| 20260901005813 | 11 | 319 | 1.6 | 3.2 | 0.00 | 0.00 | 0.00 | 88 | 1016.1 |
| 20260901005313 | 12 | 319 | 0.0 | 4.8 | 0.00 | 0.00 | 0.00 | 89 | 1016.0 |
| 20260901004814 | 12 | 340 | 1.6 | 1.6 | 0.00 | 0.00 | 0.00 | 89 | 1016.0 |
| 20260901004313 | 12 | 333 | 1.6 | 4.8 | 0.00 | 0.00 | 0.00 | 88 | 1016.0 |
| 20260901003813 | 12 | 304 | 0.0 | 1.6 | 0.00 | 0.00 | 0.00 | 88 | 1016.0 |
| 20260901003313 | 12 | 304 | 1.6 | 3.2 | 0.00 | 0.00 | 0.00 | 88 | 1015.9 |
| 20260901002813 | 12 | 275 | 1.6 | 1.6 | 0.00 | 0.00 | 0.00 | 88 | 1015.9 |
| 20260901002313 | 12 | 275 | 1.6 | 3.2 | 0.00 | 0.00 | 0.00 | 88 | 1015.9 |
| 20260901001813 | 12 | 275 | 1.6 | 3.2 | 0.00 | 0.00 | 0.00 | 88 | 1015.9 |
| 20260901001312 | 12 | 275 | 1.6 | 1.6 | 0.00 | 0.00 | 0.00 | 88 | 1015.9 |
| 20260901000813 | 12 | 275 | 1.6 | 29.0 | 0.00 | 0.03 | 0.00 | 88 | 1016.0 |
| 20260901000314 | 12 | 275 | 1.6 | 1.6 | 0.00 | 0.03 | 0.00 | 88 | 1016.0 |
| 20260831234312 | 12 | 257 | 0.0 | 3.2 | 0.00 | 0.03 | 0.00 | 88 | 1015.9 |
| 20260831233813 | 12 | 257 | 1.6 | 3.2 | 0.00 | 0.03 | 0.00 | 88 | 1015.9 |
| 20260831233312 | 12 | 257 | 0.0 | 3.2 | 0.00 | 0.03 | 0.00 | 88 | 1015.9 |
| 20260831232812 | 12 | 257 | 0.0 | 3.2 | 0.00 | 0.03 | 0.00 | 88 | 1015.8 |
| 20260831232313 | 12 | 257 | 0.0 | 3.2 | 0.00 | 0.03 | 0.00 | 87 | 1015.8 |
| 20260831231313 | 12 | 257 | 1.6 | 4.8 | 0.00 | 0.05 | 0.00 | 87 | 1015.9 |
| 20260831230902 | 12 | 257 | 1.6 | 4.8 | 0.00 | 0.05 | 0.00 | 87 | 1015.9 |
| 20260831230312 | 12 | 277 | 1.6 | 4.8 | 0.00 | 0.05 | 0.00 | 87 | 1015.8 |
| 20260831225813 | 12 | 279 | 0.0 | 3.2 | 0.00 | 0.05 | 0.05 | 87 | 1015.8 |
| 20260831225313 | 12 | 279 | 0.0 | 3.2 | 0.00 | 0.05 | 0.05 | 86 | 1015.8 |
| 20260831224813 | 12 | 279 | 0.0 | 4.8 | 0.00 | 0.05 | 0.05 | 86 | 1015.9 |
| 20260831224312 | 12 | 262 | 3.2 | 4.8 | 0.00 | 0.05 | 0.05 | 86 | 1015.8 |
| 20260831223813 | 12 | 280 | 3.2 | 9.7 | 0.00 | 0.05 | 0.05 | 86 | 1015.8 |
| 20260831222813 | 12 | 230 | 3.2 | 4.8 | 0.00 | 0.05 | 0.05 | 84 | 1015.7 |
| 20260831222312 | 12 | 230 | 0.0 | 3.2 | 0.00 | 0.05 | 0.05 | 84 | 1015.7 |
| 20260831221814 | 12 | 230 | 1.6 | 4.8 | 0.00 | 0.05 | 0.05 | 84 | 1015.6 |
| 20260831221312 | 12 | 230 | 1.6 | 3.2 | 0.00 | 0.05 | 0.05 | 84 | 1015.5 |
| 20260831220313 | 13 | 258 | 1.6 | 8.0 | 0.00 | 0.05 | 0.05 | 84 | 1015.6 |
| 20260831215813 | 13 | 265 | 0.0 | 3.2 | 0.00 | 0.05 | 0.05 | 83 | 1015.6 |
| 20260831214312 | 13 | 271 | 4.8 | 9.7 | 0.00 | 0.05 | 0.05 | 82 | 1015.5 |
| 20260831213813 | 13 | 250 | 3.2 | 4.8 | 0.00 | 0.05 | 0.05 | 82 | 1015.4 |
| 20260831213312 | 13 | 275 | 1.6 | 4.8 | 0.00 | 0.05 | 0.05 | 82 | 1015.4 |
| 20260831212813 | 13 | 284 | 3.2 | 12.9 | 0.00 | 0.05 | 0.05 | 82 | 1015.4 |
| 20260831212312 | 13 | 257 | 4.8 | 8.0 | 0.00 | 0.05 | 0.05 | 82 | 1015.3 |
| 20260831211813 | 13 | 261 | 4.8 | 8.0 | 0.00 | 0.05 | 0.05 | 82 | 1015.3 |
| 20260831211312 | 13 | 249 | 3.2 | 9.7 | 0.00 | 0.05 | 0.05 | 82 | 1015.3 |
| 20260831210814 | 13 | 270 | 1.6 | 8.0 | 0.00 | 0.05 | 0.05 | 82 | 1015.2 |
| 20260831210312 | 13 | 270 | 6.4 | 12.9 | 0.00 | 0.05 | 0.05 | 81 | 1015.2 |
| 20260831205813 | 13 | 270 | 4.8 | 12.9 | 0.00 | 0.05 | 0.05 | 81 | 1015.1 |
| 20260831205312 | 13 | 248 | 4.8 | 19.3 | 0.00 | 0.05 | 0.05 | 81 | 1015.1 |
| 20260831204812 | 13 | 251 | 4.8 | 12.9 | 0.00 | 0.05 | 0.05 | 81 | 1015.0 |
| 20260831203812 | 13 | 243 | 8.0 | 14.5 | 0.00 | 0.05 | 0.05 | 80 | 1015.0 |
| 20260831203313 | 13 | 244 | 6.4 | 11.3 | 0.00 | 0.05 | 0.05 | 79 | 1015.0 |
| 20260831202812 | 13 | 257 | 6.4 | 12.9 | 0.00 | 0.05 | 0.05 | 79 | 1015.0 |
| 20260831202312 | 13 | 271 | 6.4 | 12.9 | 0.00 | 0.05 | 0.05 | 79 | 1014.9 |
| 20260831201813 | 13 | 261 | 4.8 | 12.9 | 0.00 | 0.05 | 0.05 | 79 | 1014.9 |
| 20260831201312 | 13 | 254 | 8.0 | 16.1 | 0.00 | 0.05 | 0.05 | 79 | 1014.8 |
| 20260831200814 | 13 | 245 | 6.4 | 14.5 | 0.00 | 0.05 | 0.05 | 79 | 1014.7 |
| 20260831200313 | 13 | 255 | 6.4 | 12.9 | 0.00 | 0.05 | 0.05 | 79 | 1014.7 |
| 20260831195312 | 13 | 254 | 9.7 | 19.3 | 0.00 | 0.05 | 0.05 | 78 | 1014.6 |
| 20260831194813 | 13 | 258 | 9.7 | 14.5 | 0.00 | 0.05 | 0.05 | 78 | 1014.5 |
| 20260831194313 | 13 | 243 | 11.3 | 24.1 | 0.00 | 0.05 | 0.05 | 78 | 1014.4 |
| 20260831193812 | 13 | 260 | 9.7 | 14.5 | 0.00 | 0.05 | 0.05 | 78 | 1014.3 |
| 20260831193313 | 13 | 274 | 8.0 | 14.5 | 0.00 | 0.05 | 0.05 | 78 | 1014.3 |
| 20260831192813 | 13 | 264 | 9.7 | 19.3 | 0.00 | 0.05 | 0.05 | 78 | 1014.2 |
| 20260831192312 | 13 | 258 | 8.0 | 16.1 | 0.00 | 0.05 | 0.05 | 78 | 1014.1 |
| 20260831191813 | 13 | 245 | 8.0 | 14.5 | 0.00 | 0.05 | 0.05 | 79 | 1014.0 |
| 20260831191312 | 14 | 252 | 11.3 | 19.3 | 0.00 | 0.05 | 0.05 | 78 | 1014.0 |
| 20260831190314 | 14 | 250 | 9.7 | 19.3 | 0.00 | 0.05 | 0.05 | 79 | 1013.9 |
| 20260831185812 | 14 | 253 | 8.0 | 14.5 | 0.00 | 0.05 | 0.05 | 79 | 1013.8 |
| 20260831185312 | 14 | 251 | 9.7 | 19.3 | 0.00 | 0.05 | 0.05 | 79 | 1013.7 |
| 20260831184812 | 14 | 253 | 8.0 | 19.3 | 0.00 | 0.05 | 0.05 | 78 | 1013.7 |
| 20260831183813 | 14 | 247 | 11.3 | 19.3 | 0.00 | 0.08 | 0.05 | 78 | 1013.6 |
| 20260831183312 | 14 | 250 | 11.3 | 19.3 | 0.00 | 0.15 | 0.05 | 77 | 1013.6 |
| 20260831182813 | 14 | 243 | 11.3 | 27.4 | 0.00 | 0.18 | 0.05 | 77 | 1013.5 |
| 20260831182312 | 14 | 257 | 9.7 | 19.3 | 0.00 | 0.20 | 0.05 | 77 | 1013.4 |
| 20260831181812 | 14 | 243 | 8.0 | 12.9 | 0.00 | 0.23 | 0.05 | 77 | 1013.4 |
| 20260831181313 | 14 | 259 | 9.7 | 19.3 | 0.00 | 0.25 | 0.05 | 76 | 1013.3 |
| 20260831180812 | 15 | 253 | 11.3 | 19.3 | 0.00 | 0.33 | 0.05 | 76 | 1013.2 |
| 20260831175812 | 15 | 253 | 9.7 | 25.7 | 0.00 | 0.51 | 0.05 | 76 | 1013.1 |
| 20260831175312 | 15 | 256 | 8.0 | 20.9 | 0.00 | 0.51 | 0.05 | 76 | 1013.0 |
| 20260831174813 | 15 | 247 | 11.3 | 19.3 | 0.00 | 0.51 | 0.05 | 75 | 1012.9 |
| 20260831173812 | 15 | 251 | 8.0 | 19.3 | 0.00 | 0.61 | 0.05 | 75 | 1012.8 |
| 20260831173312 | 15 | 254 | 14.5 | 29.0 | 0.00 | 0.61 | 0.05 | 75 | 1012.6 |
| 20260831172812 | 15 | 256 | 9.7 | 19.3 | 0.00 | 0.61 | 0.05 | 76 | 1012.6 |
| 20260831172313 | 15 | 253 | 8.0 | 24.1 | 0.00 | 0.61 | 0.05 | 76 | 1012.5 |
| 20260831171812 | 15 | 250 | 14.5 | 25.7 | 0.00 | 0.61 | 0.05 | 75 | 1012.5 |
| 20260831171313 | 15 | 252 | 9.7 | 20.9 | 0.00 | 0.61 | 0.05 | 76 | 1012.5 |
| 20260831170813 | 15 | 259 | 12.9 | 24.1 | 0.00 | 0.61 | 0.05 | 76 | 1012.5 |
| 20260831170313 | 15 | 254 | 8.0 | 14.5 | 0.00 | 0.61 | 0.05 | 76 | 1012.4 |
| 20260831165812 | 15 | 265 | 11.3 | 22.5 | 0.00 | 0.61 | 0.05 | 75 | 1012.4 |
| 20260831165312 | 15 | 251 | 11.3 | 25.7 | 0.00 | 0.61 | 0.05 | 76 | 1012.3 |
| 20260831164812 | 16 | 257 | 9.7 | 19.3 | 0.00 | 0.61 | 0.05 | 75 | 1012.3 |
| 20260831164312 | 16 | 250 | 11.3 | 22.5 | 0.00 | 0.61 | 0.05 | 76 | 1012.3 |
| 20260831163812 | 16 | 241 | 9.7 | 22.5 | 0.00 | 0.61 | 0.05 | 78 | 1012.2 |
| 20260831162812 | 16 | 254 | 9.7 | 16.1 | 0.00 | 0.61 | 0.05 | 79 | 1012.2 |
| 20260831161812 | 16 | 247 | 9.7 | 19.3 | 0.00 | 0.61 | 0.05 | 78 | 1012.2 |
| 20260831161312 | 16 | 244 | 9.7 | 19.3 | 0.00 | 0.61 | 0.05 | 78 | 1012.2 |
| 20260831160313 | 16 | 246 | 9.7 | 19.3 | 0.00 | 0.61 | 0.05 | 74 | 1012.1 |
| 20260831155813 | 17 | 249 | 8.0 | 22.5 | 0.00 | 0.61 | 0.05 | 73 | 1012.1 |
| 20260831155312 | 17 | 257 | 9.7 | 20.9 | 0.00 | 0.61 | 0.05 | 72 | 1011.9 |
| 20260831154813 | 17 | 249 | 9.7 | 20.9 | 0.00 | 0.61 | 0.05 | 70 | 1011.8 |
| 20260831154312 | 18 | 246 | 9.7 | 19.3 | 0.00 | 0.61 | 0.05 | 70 | 1011.7 |
| 20260831153812 | 17 | 254 | 8.0 | 22.5 | 0.00 | 0.61 | 0.05 | 71 | 1011.7 |
| 20260831153312 | 17 | 242 | 11.3 | 25.7 | 0.00 | 0.61 | 0.05 | 71 | 1011.6 |
| 20260831152812 | 17 | 241 | 9.7 | 20.9 | 0.00 | 0.61 | 0.05 | 73 | 1011.5 |
| 20260831152313 | 17 | 243 | 9.7 | 25.7 | 0.00 | 0.61 | 0.05 | 74 | 1011.4 |
| 20260831151812 | 17 | 251 | 9.7 | 25.7 | 0.00 | 0.61 | 0.05 | 73 | 1011.3 |
| 20260831151312 | 17 | 259 | 8.0 | 22.5 | 0.00 | 0.61 | 0.05 | 75 | 1011.1 |
| 20260831150812 | 17 | 255 | 8.0 | 20.9 | 0.00 | 0.61 | 0.05 | 74 | 1011.2 |
| 20260831150312 | 18 | 250 | 11.3 | 22.5 | 0.00 | 0.61 | 0.05 | 73 | 1011.1 |
| 20260831145812 | 17 | 275 | 12.9 | 29.0 | 0.00 | 0.61 | 0.05 | 72 | 1011.1 |
| 20260831145312 | 17 | 281 | 8.0 | 24.1 | 0.00 | 0.61 | 0.05 | 74 | 1010.9 |